This demonstration page uses our WeatherBlox Daily Observations layout. Learn more.

Left ArrowRight Arrow

31.84235, -102.49876

Hourly Observations for August 28, 2015

Temp ( °F °C ) Dew Point ( °F °C ) Humidity (%) Winds ( mph kmh ) Pressure ( in mb ) Visibility ( mi km ) Precip ( " mm )
12:53 am 00:53 Clear 82 27.8 53 11.7 37 37 S 14 22 29.89 1012 10 16 0.00 0.00
1:53 am 01:53 Clear 80 26.7 54 12.2 41 41 SSW 13 20 29.88 1012 10 16 0.00 0.00
2:53 am 02:53 Clear 79 26.1 55 12.8 44 44 SSW 14 22 29.88 1012 10 16 0.00 0.00
3:53 am 03:53 Clear 78 25.6 56 13.3 47 47 S 14 22 29.87 1012 10 16 0.00 0.00
4:53 am 04:53 Clear 77 25 56 13.3 48 48 S 16 26 29.87 1012 10 16 0.00 0.00
5:53 am 05:53 Clear 76 24.4 56 13.3 50 50 S 13 20 29.88 1012 10 16 0.00 0.00
6:53 am 06:53 Clear 74 23.3 57 13.9 56 56 S 10 17 29.89 1012 10 16 0.00 0.00
7:53 am 07:53 Sunny 74 23.3 56 13.3 54 54 S 9 15 29.90 1013 9 14 0.00 0.00
8:53 am 08:53 Sunny 77 25 55 12.8 47 47 S 15 24 29.91 1013 9 14 0.00 0.00
9:53 am 09:53 Sunny 82 27.8 54 12.2 38 38 S 16 26 29.91 1013 9 14 0.00 0.00
10:53 am 10:53 Sunny 85 29.4 54 12.2 35 35 S 16 26 29.91 1013 10 16 0.00 0.00
11:53 am 11:53 Sunny 89 31.7 54 12.2 30 30 SSW 16 26 29.91 1013 10 16 0.00 0.00
12:53 pm 12:53 Sunny 92 33.3 53 11.7 27 27 S 16 26 29.89 1012 10 16 0.00 0.00
1:53 pm 13:53 Sunny 94 34.4 52 11.1 24 24 SSW 10 17 29.87 1011 10 16 0.00 0.00
2:53 pm 14:53 Sunny 98 36.7 50 10 20 20 S 12 19 29.83 1010 10 16 0.00 0.00
3:53 pm 15:53 Sunny 97 36.1 48 8.9 19 19 SSW 3 6 29.80 1009 10 16 0.00 0.00
4:53 pm 16:53 Sunny 98 36.7 47 8.3 17 17 SE 10 17 29.78 1009 10 16 0.00 0.00
5:41 pm 17:41 Sunny 97 36.1 46 7.8 17 17 SE 12 19 29.65 1004 10 16 0.00 0.00
5:53 pm 17:53 Sunny 98 36.7 47 8.3 17 17 SSE 16 26 29.78 1008 10 16 0.00 0.00
6:53 pm 18:53 Sunny 95 35 45 7.2 18 18 SSE 10 17 29.79 1009 10 16 0.00 0.00
7:53 pm 19:53 Cloudy 85 29.4 56 13.3 37 37 N 10 17 29.83 1010 10 16 0.00 0.00
8:53 pm 20:53 Mostly Cloudy 80 26.7 60 15.6 51 51 WNW 23 37 29.88 1012 9 14 0.00 0.00
9:00 pm 21:00 Mostly Cloudy 79 26.1 60 15.6 52 52 WNW 22 35 29.85 1011 9 14 0.00 0.00
9:53 pm 21:53 Partly Cloudy 81 27.2 55 12.8 41 41 W 24 39 29.89 1012 10 16 0.00 0.00
10:53 pm 22:53 Mostly Cloudy 80 26.7 55 12.8 42 42 WSW 16 26 29.91 1013 10 16 0.00 0.00
11:53 pm 23:53 Mostly Cloudy 82 27.8 53 11.7 37 37 SW 9 15 29.88 1012 10 16 0.00 0.03

Powered by AerisWeather